FW1308 Weather Reports


time (UTC)temp
F
wind
direction
speed
knots
gust
knots
rain 1hr
in
rain 24hr
in
rain mn
in
humidity
%
barometer
mb
20260506044547 44 100 0.0 1.7 0.00 0.00 0.00 80 1015.4
20260506043041 44 95 0.0 0.9 0.00 0.00 0.00 81 1015.2
20260506041539 44 55 0.0 0.9 0.00 0.00 0.00 82 1015.3
20260506040055 44 33 0.0 0.9 0.00 0.00 0.00 82 1015.3
20260506034537 44 41 0.0 0.9 0.00 0.00 0.00 83 1015.3
20260506033034 44 47 0.0 2.6 0.00 0.00 0.00 83 1015.4
20260506031547 44 193 0.0 2.6 0.00 0.00 0.00 83 1015.5
20260506030031 44 83 0.0 0.9 0.00 0.00 0.00 82 1015.5
20260506024531 45 65 0.0 2.6 0.00 0.00 0.00 82 1015.5
20260506023029 45 44 0.9 3.5 0.00 0.00 0.00 82 1015.5
20260506021526 45 221 0.0 3.5 0.00 0.00 0.00 81 1015.6
20260506020025 45 110 0.9 2.6 0.00 0.00 0.00 80 1015.7
20260506014522 45 38 0.0 2.6 0.00 0.00 0.00 80 1015.7
20260506013022 45 19 0.0 3.5 0.00 0.00 0.00 80 1015.8
20260506011520 45 35 0.0 0.9 0.00 0.00 0.00 80 1015.8
20260506010019 45 36 0.0 2.6 0.00 0.00 0.00 79 1015.8
20260506004523 46 70 0.0 2.6 0.00 0.00 0.00 78 1015.8
20260506003016 46 70 0.0 2.6 0.00 0.00 0.00 77 1016.0
20260506001515 46 15 0.0 3.5 0.00 0.00 0.00 76 1016.0
20260506000013 46 49 0.9 4.3 0.00 0.00 0.00 76 1015.8
20260505234511 46 43 0.0 4.3 0.00 0.00 0.00 75 1015.9
20260505233007 47 10 0.0 3.5 0.00 0.00 0.00 76 1016.0
20260505231504 47 355 0.9 4.3 0.00 0.00 0.00 76 1016.0
20260505230101 47 83 0.0 1.7 0.00 0.00 0.00 78 1016.1
20260505224600 47 19 0.9 4.3 0.00 0.00 0.00 79 1016.0
20260505223059 47 40 0.9 6.1 0.00 0.00 0.00 79 1016.0
20260505221559 48 90 0.0 5.2 0.00 0.00 0.00 79 1016.0
20260505220057 48 79 0.9 5.2 0.00 0.00 0.00 79 1015.8
20260505214600 48 72 0.0 4.3 0.00 0.00 0.00 79 1015.9
20260505213055 49 73 0.0 7.8 0.00 0.00 0.00 78 1015.9
20260505211609 49 57 0.0 4.3 0.00 0.00 0.00 78 1015.7
20260505210059 49 4 2.6 7.0 0.00 0.00 0.00 76 1015.7
20260505204601 50 76 0.0 4.3 0.00 0.00 0.00 75 1015.6
20260505203058 50 36 0.9 4.3 0.00 0.00 0.00 75 1015.5
20260505201559 50 348 0.9 5.2 0.00 0.00 0.00 75 1015.4
20260505200052 51 35 0.9 5.2 0.00 0.00 0.00 81 1015.3
20260505194607 51 142 0.9 2.6 0.00 0.00 0.00 81 1015.0
20260505193052 51 53 0.0 3.5 0.00 0.00 0.00 80 1015.0
20260505191551 51 22 0.9 4.3 0.00 0.00 0.00 79 1014.8
20260505190051 52 115 1.7 5.2 0.00 0.00 0.00 79 1014.7
20260505184550 52 68 0.0 4.3 0.00 0.00 0.00 78 1014.6
20260505183048 52 5 0.0 6.1 0.00 0.00 0.00 78 1014.5
20260505181552 53 81 1.7 7.0 0.00 0.00 0.00 77 1014.3
20260505180046 54 23 1.7 8.7 0.00 0.00 0.00 76 1014.2
20260505174553 56 44 0.0 2.6 0.00 0.00 0.00 64 1014.1
20260505173045 56 55 0.0 3.5 0.00 0.00 0.00 64 1014.0
20260505171545 57 25 0.9 4.3 0.00 0.00 0.00 62 1014.1
20260505170044 57 80 0.0 3.5 0.00 0.00 0.00 62 1014.0
20260505164601 58 304 0.0 3.5 0.00 0.00 0.00 62 1013.9
20260505163051 58 245 0.0 2.6 0.00 0.00 0.00 59 1013.9
20260505161541 59 62 0.9 3.5 0.00 0.00 0.00 58 1013.9
20260505153038 59 67 0.9 3.5 0.00 0.00 0.00 56 1014.0
20260505151537 59 63 0.0 4.3 0.00 0.00 0.00 58 1013.9
20260505124522 58 39 0.0 5.2 0.00 0.00 0.00 61 1014.3
20260505123021 58 56 0.0 1.7 0.00 0.00 0.00 62 1014.3
20260505121519 58 72 0.0 2.6 0.00 0.00 0.00 63 1014.3
20260505120011 57 156 0.0 3.5 0.00 0.00 0.00 65 1014.4
20260505114536 57 113 0.9 3.5 0.00 0.00 0.00 64 1014.3
20260505113036 57 256 0.0 4.3 0.00 0.00 0.00 65 1014.4
20260505111538 57 358 0.0 2.6 0.00 0.00 0.00 65 1014.4
20260505101528 57 159 0.0 3.5 0.00 0.00 0.00 67 1014.8
20260505100030 58 262 0.0 4.3 0.00 0.00 0.00 67 1014.7
20260505094524 57 214 0.0 5.2 0.00 0.00 0.00 69 1014.8
20260505093022 56 253 1.7 3.5 0.00 0.00 0.00 69 1014.8
20260505091517 56 41 0.9 2.6 0.00 0.00 0.00 72 1014.8
20260505090013 54 60 0.0 4.3 0.00 0.00 0.00 74 1014.9
20260505084518 54 271 0.9 3.5 0.00 0.00 0.00 74 1015.0
20260505083014 54 278 1.7 3.5 0.00 0.00 0.00 74 1015.1
20260505081510 53 239 0.0 5.2 0.00 0.00 0.00 78 1015.3
20260505080006 51 232 0.9 3.5 0.00 0.00 0.00 80 1015.4
20260505074506 51 275 0.9 3.5 0.00 0.00 0.00 79 1015.3
20260505073001 50 255 0.0 1.7 0.00 0.00 0.00 83 1015.2
20260505071617 49 257 0.0 1.7 0.00 0.00 0.00 84 1015.1
20260505070111 48 258 0.9 2.6 0.00 0.00 0.00 85 1015.2
20260505064600 48 263 0.9 2.6 0.00 0.00 0.00 85 1015.3
20260505063056 48 254 0.0 4.3 0.00 0.00 0.00 85 1015.3
20260505061558 46 261 0.9 3.5 0.00 0.00 0.00 88 1015.3
20260505060053 45 250 0.0 2.6 0.00 0.00 0.00 89 1015.3
20260505054556 45 257 0.0 1.7 0.00 0.00 0.00 89 1015.5
20260505053100 45 241 0.0 3.5 0.00 0.00 0.00 89 1015.4